www.pogodaiklimat.ru

ПОГОДА в Брэнсон Уэст, MO

  • Прогноз погоды в Брэнсон Уэст
  • Монитор погоды в Брэнсон Уэст
  • Климат в Брэнсон Уэст

АРХИВ ПОГОДЫ в Брэнсон Уэст

Время (UTC), дата Ветер
(напр.,м/с)
 
Видим.   Явления Облачность Т
(С)
Тd
(С)
f
(%)
Тe
(С)
Тes
(С)
Комфортность

P
(гПа)

Po
(гПа)
Тmin
(С)
Tmax
(С)
R
(мм)
SD
(см)
11:35 18.08 С  14 км  слабый дождь  8/5 1800 м
[средняя] 
+22.0  +19.0  83  +27  +27  душно    966.6         
11:55 18.08   16 км    2/2 1800 м  +22.0  +20.0  88  +28  +28  душно    966.3         
12:15 18.08 Ю  16 км    ясно  +22.0  +20.0  88  +28  +30  душно    966.0         
12:35 18.08 Ю  16 км    ясно  +23.0  +20.0  83  +30  +31  очень
душно 
  965.3         
12:55 18.08 Ю  16 км    ясно  +23.0  +20.0  83  +30  +32  очень
душно 
  965.3         
13:15 18.08 Ю  16 км    ясно  +25.0  +20.0  74  +31  +35  очень
душно 
  965.3         
13:35 18.08 Ю  16 км    ясно  +26.0  +20.0  70  +32  +36  очень
душно 
  965.3         
13:55 18.08 ЮЗ  16 км    ясно  +27.0  +20.0  66  +33  +37  очень
душно 
  965.6         
14:15 18.08 ЮЗ  16 км    ясно  +27.0  +20.0  66  +33  +41  очень
душно 
  966.3         
14:35 18.08 ЮЗ  16 км    ясно  +28.0  +21.0  66  +35  +42  очень
душно 
  966.6         
14:55 18.08 ЮЗ  16 км    ясно  +28.0  +22.0  70  +36  +45  очень
душно 
  966.6         
15:15 18.08 ЮЗ  16 км    8/0 2700 м
[средняя] 
+29.0  +22.0  66  +37  +42  очень
душно 
  966.9         
15:35 18.08 ЮЗ  16 км    2/0 2700 м
[средняя] 
+30.0  +22.0  62  +39  +46  очень
душно 
  966.6         
15:55 18.08 ЮЗ  16 км    ясно  +30.0  +23.0  66  +40  +47  очень
душно 
  966.6         
16:15 18.08 З  16 км    ясно  +30.0  +23.0  66  +40  +55  опасность
солнечного
удара 
  966.3         
16:35 18.08 ЮЗ  4
{8} 
16 км    2/2 930 м  +32.0  +23.0  59  +42  +50  опасность
перегрева 
  965.6         
16:55 18.08 ЮЗ  16 км    2/2 930 м  +31.0  +23.0  62  +41  +50  опасность
перегрева 
  965.6         
17:15 18.08 Ю  16 км    ясно  +30.0  +23.0  66  +40  +52  опасность
солнечного
удара 
  964.3         
17:35 18.08 Ю  2
{9} 
16 км    ясно  +29.0  +23.0  70  +39  +55  опасность
солнечного
удара 
  964.3         
17:55 18.08 ЮЗ  16 км    ясно  +29.0  +23.0  70  +39  +52  опасность
солнечного
удара 
  965.3         
18:15 18.08 ЮЗ  16 км    ясно  +29.0  +23.0  70  +39  +51  опасность
солнечного
удара 
  965.3         
18:35 18.08 ЮЗ  16 км    ясно  +30.0  +23.0  66  +40  +52  опасность
солнечного
удара 
  964.7         
18:55 18.08 Ю  16 км    ясно  +30.0  +23.0  66  +40  +53  опасность
солнечного
удара 
  964.3         
19:15 18.08 ЮЗ  3
{8} 
16 км    ясно  +32.0  +23.0  59  +42  +53  опасность
перегрева 
  964.3         
19:35 18.08 ЮЗ  16 км    ясно  +32.0  +23.0  59  +42  +55  опасность
перегрева 
  964.0         
19:55 18.08 Ю  16 км    ясно  +32.0  +23.0  59  +42  +53  опасность
перегрева 
  964.0         
20:15 18.08 З  16 км    ясно  +33.0  +22.0  52  +41  +49  опасность
перегрева 
  964.3         
20:35 18.08 ЮЗ  16 км    ясно  +33.0  +22.0  52  +41  +52  опасность
перегрева 
  964.3         
20:55 18.08 СЗ  16 км    ясно  +33.0  +21.0  49  +40  +48  очень
душно 
  964.3         
21:15 18.08 СЗ  16 км    ясно  +33.0  +22.0  52  +41  +46  опасность
перегрева 
  964.0         
21:35 18.08 СЗ  16 км    ясно  +33.0  +20.0  46  +39  +43  очень
душно 
  964.0         
21:55 18.08 З  16 км    ясно  +33.0  +20.0  46  +39  +47  очень
душно 
  964.3         
22:15 18.08 З  16 км    ясно  +33.0  +19.0  44  +38  +41  очень
душно 
  964.3         
22:35 18.08 З  16 км    ясно  +32.0  +19.0  46  +37  +40  очень
душно 
  964.3         
22:55 18.08 СЗ  16 км    ясно  +32.0  +19.0  46  +37  +40  очень
душно 
  964.3         
23:15 18.08 З  16 км    ясно  +31.0  +19.0  49  +36  +37  очень
душно 
  964.7         
23:35 18.08   16 км    ясно  +30.0  +19.0  52  +35  +36  очень
душно 
  965.0         
23:55 18.08   16 км    ясно  +29.0  +20.0  58  +35  +36  очень
душно 
  965.3         
00:15 19.08   16 км    2/0 3600 м
[средняя] 
+27.0  +20.0  66  +33  +33  очень
душно 
  965.6         
00:35 19.08   16 км    8/0 3300 м
[средняя] 
+27.0  +20.0  66  +33  +33  очень
душно 
  966.0         
00:55 19.08   16 км    10/0 3000 м
[средняя] 
+27.0  +20.0  66  +33  +33  очень
душно 
  966.0         
01:15 19.08   16 км    10/0 2700 м
[средняя] 
+27.0  +21.0  70  +34  +34  очень
душно 
  966.3         
01:35 19.08 В  16 км    10/0 3000 м
[средняя] 
+25.0  +21.0  78  +31  +31  очень
душно 
  966.3         
01:55 19.08   16 км    8/0 3000 м
[средняя] 
+25.0  +20.0  74  +31  +31  очень
душно 
  966.6         
02:15 19.08   16 км    5/0 3000 м
[средняя] 
+25.0  +20.0  74  +31  +31  очень
душно 
  966.6         
02:35 19.08   16 км    5/0 3000 м
[средняя] 
+25.0  +21.0  78  +31  +31  очень
душно 
  966.6         
02:55 19.08   16 км    8/0 3000 м
[средняя] 
+25.0  +20.0  74  +31  +31  очень
душно 
  966.9         
03:15 19.08   16 км    10/0 3000 м
[средняя] 
+25.0  +20.0  74  +31  +31  очень
душно 
  967.2         

 

Местоположение метеостанции Branson West Municipal Airport: широта 36.6985 долгота -93.4022 высота над уровнем моря 411 м.

В архиве по умолчанию представлена погода в Брэнсон Уэст за последние 1-2 суток. Обновление информации о фактической погоде в базе происходит ежечасно! Архивные данные за месяц целиком и за предыдущие месяцы Вы можете получить, выбрав интересующий диапазон дат из раскрывающегося списка и нажав кнопку "Ввод!".

Внимание! Архив погоды МЕТАР в базе сайта хранится не более 60 дней. Нет смысла пытаться выбрать более раннюю дату.

Внимание! Время в таблицах - всемирное. Для получения местного времени необходимо прибавить поправку, которая в Брэнсон Уэст равна -6 ч.

Ветер - указаны скорость ветра в м/с и направление, откуда дует ветер: С - северный, СВ - северо-восточный, В - восточный, ЮВ - юго-восточный, Ю - южный, ЮЗ - юго-западный, З - западный, СЗ - северо-западный.
Видимость - горизонтальная дальность видимости в метрах или километрах. При видимости от 1 до 10 км при отсутствии осадков обычно наблюдается дымка, при ухудшении видимости до 1 км и менее - туман. В сухую погоду видимость может ухудшаться дымом, пылью или мглою.
Атмосферные явления - указаны явления, наблюдавшиеся в указанный момент времени.
Облачность - указаны через наклонную черту верхняя и нижняя облачность в баллах и высота нижней границы облаков в метрах. Внимание: облачность, как и прочие метеорологические величины в США измеряются автоматическими метеостанциями. Указанные значения в баллах носят условный характер и показывают процент времени, в течение которого, в среднем, лазерный луч высотомера отражался от облаков обратно.
T - Температура воздуха - температура, измеренная на высоте 2 м над землей.
Td - Температура точки росы - температура, при понижении до которой содержащийся в воздухе водяной пар достигнет насыщения.
f - Относительная влажность воздуха - влажноcть воздуха, измеренная на высоте 2 м над землей.
Te - Эффективная температура - температура, которую ощущает одетый по сезону человек в тени. Характеристика душности погоды. При расчете учитывается влияние влажности воздуха и скорости ветра на теплоощущения человека.
Tes - Эффективная температура на солнце - температура, которую ощущает человек, с поправкой на солнечный нагрев. Характеристика знойности погоды. Зависит от высоты солнца над горизонтом, облачности и скорости ветра. Ночью, в пасмурную погоду, а также при ветре 12 м/с и более поправка равна нулю.
P - Атмосферное давление - приведенное к уровню моря атмосферное давление.
Po - Атмосферное давление - измеренное на уровне метеостанции атмосферное давление.
Tmin - Минимальная температура - минимум температуры воздуха на высоте 2 м над землей.
Tmax - Максимальная температура - максимум температуры воздуха на высоте 2 м над землей.
R - Количество осадков - Количество выпавших осадков за 3 или 6 часов, мм.
SD - Снежный покров - Высота снежного покрова, см.